ASTROSAT

Last updated on Tue Oct 28 2025 00:03:40 GMT+0000 (Coordinated Universal Time)

1 40930U 15052A 25300.07798110 .00002630 00000+0 24220-3 0 9995 2 40930 5.9977 32.5147 0008759 305.0742 54.8565 14.81830769545180
UTC large
Height (km)
Speed (km/s)
/
Latitude / Longitude
Inclination (degrees)
Orbital Period (minutes)
Azimuth
Elevation
Range (km)
Doppler Factor

Next 0 passes for location: London (51.5072 / 0.1276)

Sorry there are no passes over London.